Location: La Pernelle
(49.6188°N, 1.2999°W)
Time: 04:07:06
(UTC+00:00)

NOSS 3-2 (A) - Pass Details

Date: 23 October 2021
Orbit: 771 x 1437 km, 63.4° (Epoch: 21 November)

Event Time Altitude Azimuth Distance (km) Brightness Sun altitude
Rises 20:39:41 0° 316° (NW) 3,853 7.5 -35.7°
Reaches altitude 10° 20:42:12 10° 319° (NW) 2,987 6.7 -36.1°
Enters shadow 20:47:51 55° 350° (N) 1,445 4.4 -36.9°
